Current Weather Conditions: station 41047

sailwx.info

Wind from 080 at 13 knots gusting 17

Last reported at 2018-Dec-13 12:00 UTC.
Time now 2018-Dec-13 12:58 UTC

Location: N 27°30' W 071°30'.
View on Google Maps.

See reports from other nearby stations

  
Tides and Currents Weather Stations Pressure Air Temp Water Temp Dewpoint Dewpoint Depression Visibility Wind Speed Wind Dir Waves Ship Positions
date/time (UTC)wind fromknots sea level pressurealtimeterstation pressurevisibilityair tempwater tempwave heightnotes
2018-Dec-13 12:00 080 13 gusting 17
2018-Dec-13 11:50 090 15 gusting 19 10.7 1.8
2018-Dec-13 11:40 100 13 gusting 17
2018-Dec-13 11:30 090 13 gusting 17
2018-Dec-13 11:20 090 11 gusting 15
2018-Dec-13 11:10 090 11 gusting 15
2018-Dec-13 11:00 090 9 gusting 17
2018-Dec-13 10:50 080 9 gusting 13 1.8
2018-Dec-13 10:40 080 7 gusting 11
2018-Dec-13 10:30 070 7 gusting 13
2018-Dec-13 10:20 070 7 gusting 11
2018-Dec-13 10:10 080 9 gusting 15
2018-Dec-13 10:00 080 9 gusting 13
2018-Dec-13 09:50 080 9 gusting 13 1.8
2018-Dec-13 09:40 070 9 gusting 13
2018-Dec-13 09:30 080 9 gusting 13
2018-Dec-13 09:20 070 7 gusting 11
2018-Dec-13 09:10 060 7 gusting 9
2018-Dec-13 09:00 050 9 gusting 13
2018-Dec-13 08:50 050 9 gusting 13 2.0
2018-Dec-13 08:40 040 7 gusting 13
2018-Dec-13 08:30 040 9 gusting 13
2018-Dec-13 08:20 040 9 gusting 13
2018-Dec-13 08:10 060 9 gusting 11
2018-Dec-13 08:00 070 5 gusting 13
2018-Dec-13 07:50 080 9 gusting 13 2.0
2018-Dec-13 07:40 070 11 gusting 15
2018-Dec-13 07:30 070 11 gusting 15
2018-Dec-13 07:20 060 9 gusting 15
2018-Dec-13 07:10 060 9 gusting 13
2018-Dec-13 07:00 050 11 gusting 15
2018-Dec-13 06:50 080 9 gusting 13 2.2
2018-Dec-13 06:40 080 9 gusting 15
2018-Dec-13 06:30 060 9 gusting 15
2018-Dec-13 06:20 080 9 gusting 15
2018-Dec-13 06:10 080 9 gusting 15
2018-Dec-13 06:00 070 9 gusting 15
2018-Dec-13 05:50 070 9 gusting 15 2.3
2018-Dec-13 05:40 070 11 gusting 15
2018-Dec-13 05:30 070 9 gusting 15
2018-Dec-13 05:20 060 9 gusting 13
2018-Dec-13 05:10 060 11 gusting 15
2018-Dec-13 05:00 070 9 gusting 13
2018-Dec-13 04:50 090 7 gusting 11 2.6
2018-Dec-13 04:40 100 9 gusting 15
2018-Dec-13 04:30 080 7 gusting 13
2018-Dec-13 04:20 090 7 gusting 11
2018-Dec-13 04:10 100 5 gusting 9
2018-Dec-13 04:00 110 7 gusting 15
2018-Dec-13 03:50 080 7 gusting 13 2.2
2018-Dec-13 03:40 080 9 gusting 15
2018-Dec-13 03:30 100 9 gusting 13
2018-Dec-13 03:20 080 7 gusting 11
2018-Dec-13 03:10 080 7 gusting 11
2018-Dec-13 03:00 080 9 gusting 15
2018-Dec-13 02:50 090 7 gusting 11 2.3
2018-Dec-13 02:40 070 9 gusting 13
2018-Dec-13 02:30 090 9 gusting 15
2018-Dec-13 02:20 090 9 gusting 13
2018-Dec-13 02:10 070 11 gusting 15
2018-Dec-13 02:00 070 9 gusting 15
2018-Dec-13 01:50 060 9 gusting 15 2.5
2018-Dec-13 01:40 070 11 gusting 17
2018-Dec-13 01:30 060 9 gusting 13
2018-Dec-13 01:20 070 9 gusting 13
2018-Dec-13 01:10 070 9 gusting 15
2018-Dec-13 01:00 060 11 gusting 15
2018-Dec-13 00:50 060 9 gusting 15 2.3
2018-Dec-13 00:40 060 11 gusting 15
2018-Dec-13 00:30 060 11 gusting 17
2018-Dec-13 00:20 080 11 gusting 15
2018-Dec-13 00:10 060 11 gusting 17
2018-Dec-13 00:00 070 11 gusting 15
2018-Dec-12 23:50 070 9 gusting 15 1.7 2.5
2018-Dec-12 23:40 060 11 gusting 17
2018-Dec-12 23:30 070 11 gusting 15
2018-Dec-12 23:20 070 9 gusting 13
2018-Dec-12 23:10 070 9 gusting 15
2018-Dec-12 23:00 080 9 gusting 15
2018-Dec-12 22:50 060 9 gusting 15 2.2
2018-Dec-12 22:40 050 7 gusting 13
2018-Dec-12 22:30 040 9 gusting 15
2018-Dec-12 22:20 030 11 gusting 19
2018-Dec-12 22:10 040 11 gusting 17
2018-Dec-12 22:00 030 9 gusting 13
2018-Dec-12 21:50 030 11 gusting 15 2.6
2018-Dec-12 21:40 030 13 gusting 17
2018-Dec-12 21:30 020 9 gusting 13
2018-Dec-12 21:20 030 9 gusting 15
2018-Dec-12 21:10 020 9 gusting 17
2018-Dec-12 21:00 020 9 gusting 13
2018-Dec-12 20:50 040 9 gusting 15 2.9
2018-Dec-12 20:40 030 11 gusting 17
2018-Dec-12 20:30 020 15 gusting 19
2018-Dec-12 20:20 020 15 gusting 19
2018-Dec-12 20:10 020 13 gusting 19
2018-Dec-12 20:00 020 15 gusting 19
2018-Dec-12 19:50 020 13 gusting 19 2.7
2018-Dec-12 19:40 020 13 gusting 17
2018-Dec-12 19:30 360 13 gusting 19
2018-Dec-12 19:20 360 13 gusting 17
2018-Dec-12 19:10 010 11 gusting 17
2018-Dec-12 19:00 360 11 gusting 19
2018-Dec-12 18:50 360 11 gusting 15 2.9
2018-Dec-12 18:40 360 11 gusting 15
2018-Dec-12 18:30 350 11 gusting 17
2018-Dec-12 18:20 360 11 gusting 17
2018-Dec-12 18:10 010 11 gusting 15
2018-Dec-12 18:00 360 11 gusting 17
2018-Dec-12 17:50 360 13 gusting 17 3.0
2018-Dec-12 17:40 350 11 gusting 17
2018-Dec-12 17:30 360 13 gusting 17
2018-Dec-12 17:20 010 13 gusting 17
2018-Dec-12 17:10 010 13 gusting 19
2018-Dec-12 17:00 360 11 gusting 17
2018-Dec-12 16:50 360 11 gusting 15 11.2 3.2
2018-Dec-12 16:40 010 11 gusting 17
2018-Dec-12 16:30 010 9 gusting 13
2018-Dec-12 16:20 360 9 gusting 15
2018-Dec-12 16:10 360 9 gusting 15
2018-Dec-12 16:00 350 7 gusting 13
2018-Dec-12 15:50 360 9 gusting 15 11.1 3.1
2018-Dec-12 15:40 360 9 gusting 15
2018-Dec-12 15:30 360 9 gusting 15
2018-Dec-12 15:20 360 9 gusting 15
2018-Dec-12 15:10 350 9 gusting 13
2018-Dec-12 15:00 010 9 gusting 13
2018-Dec-12 14:50 350 9 gusting 15 2.7
2018-Dec-12 14:40 350 9 gusting 13
2018-Dec-12 14:30 350 9 gusting 15
2018-Dec-12 14:20 350 11 gusting 15
2018-Dec-12 14:10 350 9 gusting 17
2018-Dec-12 14:00 350 11 gusting 15
2018-Dec-12 13:50 350 11 gusting 17 2.8
2018-Dec-12 13:40 350 13 gusting 19
2018-Dec-12 13:30 350 13 gusting 17
2018-Dec-12 13:20 360 13 gusting 17
2018-Dec-12 13:10 010 11 gusting 15
2018-Dec-12 13:00 010 13 gusting 17
2018-Dec-12 12:50 350 13 gusting 19 5.5 2.5
2018-Dec-12 12:40 360 13 gusting 19
2018-Dec-12 12:30 360 11 gusting 15
2018-Dec-12 12:20 350 13 gusting 19
2018-Dec-12 12:10 350 13 gusting 19
2018-Dec-12 12:00 350 13 gusting 19
2018-Dec-12 11:50 350 15 gusting 19 2.5
2018-Dec-12 11:40 360 15 gusting 19
2018-Dec-12 11:30 360 15 gusting 19
2018-Dec-12 11:20 350 15 gusting 19
2018-Dec-12 11:10 350 13 gusting 17
2018-Dec-12 11:00 350 13 gusting 19
2018-Dec-12 10:50 350 15 gusting 19 3.0
2018-Dec-12 10:40 360 15 gusting 19
2018-Dec-12 10:30 350 13 gusting 21
2018-Dec-12 10:20 350 15 gusting 19
2018-Dec-12 10:10 350 15 gusting 19
2018-Dec-12 10:00 350 15 gusting 21
2018-Dec-12 09:50 340 15 gusting 21 3.3
2018-Dec-12 09:40 350 15 gusting 21
2018-Dec-12 09:30 330 15 gusting 21
2018-Dec-12 09:20 330 15 gusting 19
2018-Dec-12 09:10 320 15 gusting 21
2018-Dec-12 09:00 330 15 gusting 19
2018-Dec-12 08:50 330 15 gusting 21 2.8
2018-Dec-12 08:40 340 15 gusting 19
2018-Dec-12 08:30 340 15 gusting 21
2018-Dec-12 08:20 340 17 gusting 23
2018-Dec-12 08:10 340 17 gusting 21
2018-Dec-12 08:00 330 15 gusting 19
2018-Dec-12 07:50 340 15 gusting 19 3.3
2018-Dec-12 07:40 340 13 gusting 17
2018-Dec-12 07:30 330 15 gusting 21
2018-Dec-12 07:20 320 13 gusting 21
2018-Dec-12 07:10 320 19 gusting 25
2018-Dec-12 07:00 330 17 gusting 23
2018-Dec-12 06:50 330 19 gusting 23 3.4
2018-Dec-12 06:40 320 17 gusting 21
2018-Dec-12 06:30 330 17 gusting 23
2018-Dec-12 06:20 310 15 gusting 23
2018-Dec-12 06:10 310 17 gusting 21
2018-Dec-12 06:00 320 19 gusting 23
2018-Dec-12 05:50 320 17 gusting 23 3.3
2018-Dec-12 05:40 320 17 gusting 25
2018-Dec-12 05:30 310 17 gusting 23
2018-Dec-12 05:20 320 15 gusting 23
2018-Dec-12 05:10 310 17 gusting 23
2018-Dec-12 05:00 310 19 gusting 25
2018-Dec-12 04:50 310 21 gusting 27 3.4
2018-Dec-12 04:40 310 21 gusting 27
2018-Dec-12 04:30 320 21 gusting 27
2018-Dec-12 04:20 310 21 gusting 27
2018-Dec-12 04:10 310 19 gusting 25
2018-Dec-12 04:00 310 21 gusting 25
2018-Dec-12 03:50 310 21 gusting 25
2018-Dec-12 03:40 310 21 gusting 29
2018-Dec-12 03:30 300 21 gusting 27
2018-Dec-12 03:20 300 21 gusting 27
2018-Dec-12 03:10 300 21 gusting 31
2018-Dec-12 03:00 310 21 gusting 27
2018-Dec-12 02:50 310 23 gusting 29 3.2
2018-Dec-12 02:40 310 21 gusting 27
2018-Dec-12 02:30 310 21 gusting 27
2018-Dec-12 02:20 300 21 gusting 27
2018-Dec-12 02:10 300 21 gusting 31
2018-Dec-12 02:00 300 21 gusting 29
2018-Dec-12 01:50 300 21 gusting 27 3.5
2018-Dec-12 01:40 300 21 gusting 27
2018-Dec-12 01:30 300 21 gusting 27
2018-Dec-12 01:20 300 21 gusting 29
2018-Dec-12 01:10 300 23 gusting 31
2018-Dec-12 01:00 300 23 gusting 29
2018-Dec-12 00:50 300 21 gusting 27 3.3
2018-Dec-12 00:10 290 21 gusting 27
2018-Dec-12 00:00 300 19 gusting 27
2018-Dec-11 23:50 300 19 gusting 27 3.2
2018-Dec-11 18:40 270 17 gusting 21
2018-Dec-11 18:30 270 17 gusting 23
2018-Dec-11 18:20 270 17 gusting 21
2018-Dec-11 18:10 270 17 gusting 21
2018-Dec-11 18:00 270 15 gusting 23
2018-Dec-11 17:50 270 15 gusting 23 2.5
2018-Dec-11 17:40 270 15 gusting 19
2018-Dec-11 17:30 270 15 gusting 19
2018-Dec-11 17:20 270 15 gusting 21
2018-Dec-11 17:10 270 13 gusting 17
2018-Dec-11 17:00 280 15 gusting 21
2018-Dec-11 16:50 280 15 gusting 21 2.8
2018-Dec-11 16:40 280 13 gusting 19
2018-Dec-11 16:30 270 13 gusting 19
2018-Dec-11 16:20 280 13 gusting 17
2018-Dec-11 16:10 280 13 gusting 17
2018-Dec-11 16:00 280 13 gusting 19
2018-Dec-11 15:50 280 13 gusting 17 2.4
2018-Dec-11 15:40 280 15 gusting 21
2018-Dec-11 15:30 290 15 gusting 21
2018-Dec-11 15:20 290 15 gusting 19
2018-Dec-11 15:10 280 15 gusting 19
2018-Dec-11 15:00 280 13 gusting 17
2018-Dec-11 14:50 280 15 gusting 19 2.8
2018-Dec-11 14:40 280 15 gusting 19
2018-Dec-11 14:30 280 15 gusting 19
2018-Dec-11 14:20 280 15 gusting 23
2018-Dec-11 14:10 280 15 gusting 19
2018-Dec-11 14:00 280 15 gusting 21
2018-Dec-11 13:50 280 15 gusting 21 2.8
2018-Dec-11 13:40 290 15 gusting 19
2018-Dec-11 13:30 290 15 gusting 19
2018-Dec-11 13:20 290 15 gusting 21
2018-Dec-11 13:10 290 15 gusting 21
2018-Dec-11 13:00 290 15 gusting 19
2018-Dec-11 12:50 280 15 gusting 21 11.3 2.6
2018-Dec-11 12:40 280 15 gusting 19
2018-Dec-11 12:30 280 15 gusting 21
2018-Dec-11 12:20 280 17 gusting 23
2018-Dec-11 12:10 280 15 gusting 21
2018-Dec-11 12:00 280 15 gusting 19